Satellite: PAN SAT
Catalog number: 25520
Epoch time:      103061.42544456
Element set:     643 
Inclination:       28.4629 deg
RA of node:       144.8845 deg
Eccentricity:    0.0005944
Arg of perigee:   119.8608 deg
Mean anomaly:     240.2577 deg
Mean motion:   15.13932928 rev/day
Decay rate:    2.1170E-005 rev/day^2
Epoch rev:           23938
Checksum:              311

Satellite: ISS (ZARYA)
Catalog number: 25544
Epoch time:      103062.53351377
Element set:     744 
Inclination:       51.6325 deg
RA of node:       190.8972 deg
Eccentricity:    0.0011899
Arg of perigee:   270.4966 deg
Mean anomaly:     168.1020 deg
Mean motion:   15.59032764 rev/day
Decay rate:    2.6405E-004 rev/day^2
Epoch rev:           24452
Checksum:              306

Satellite: ORSTED
Catalog number: 25635
Epoch time:      103061.50890331
Element set:     844 
Inclination:       96.4528 deg
RA of node:        44.8857 deg
Eccentricity:    0.0144000
Arg of perigee:   291.6673 deg
Mean anomaly:      66.9240 deg
Mean motion:   14.44861227 rev/day
Decay rate:    5.5599E-006 rev/day^2
Epoch rev:           21166
Checksum:              317

Satellite: SUNSAT
Catalog number: 25636
Epoch time:      103059.56395600
Element set:     667 
Inclination:       96.4553 deg
RA of node:        42.0424 deg
Eccentricity:    0.0148146
Arg of perigee:   304.4324 deg
Mean anomaly:      54.2943 deg
Mean motion:   14.42964474 rev/day
Decay rate:    3.1100E-006 rev/day^2
Epoch rev:           21125
Checksum:              285

Satellite: UOSAT 12
Catalog number: 25693
Epoch time:      103062.21678642
Element set:     754 
Inclination:       64.5615 deg
RA of node:       332.0732 deg
Eccentricity:    0.0021748
Arg of perigee:   315.5987 deg
Mean anomaly:      44.3385 deg
Mean motion:   14.76402034 rev/day
Decay rate:    3.0300E-006 rev/day^2
Epoch rev:           20812
Checksum:              289

Satellite: FENGYUN 1C
Catalog number: 25730
Epoch time:      103061.84350974
Element set:     779 
Inclination:       98.6338 deg
RA of node:        85.7827 deg
Eccentricity:    0.0014045
Arg of perigee:   331.3541 deg
Mean anomaly:      28.6858 deg
Mean motion:   14.11734211 rev/day
Decay rate:   -6.7000E-007 rev/day^2
Epoch rev:           19636
Checksum:              315

Satellite: ASTRA 1H
Catalog number: 25785
Epoch time:      103057.00000000
Element set:     373 
Inclination:        0.0122 deg
RA of node:       319.8851 deg
Eccentricity:    0.0002995
Arg of perigee:    65.1991 deg
Mean anomaly:     149.5614 deg
Mean motion:    1.00273184 rev/day
Decay rate:    1.0400E-006 rev/day^2
Epoch rev:            1357
Checksum:              244

Satellite: TERRA
Catalog number: 25994
Epoch time:      103062.42839915
Element set:     747 
Inclination:       98.1954 deg
RA of node:       138.4481 deg
Eccentricity:    0.0000702
Arg of perigee:    98.2041 deg
Mean anomaly:     261.9239 deg
Mean motion:   14.57144404 rev/day
Decay rate:    5.7100E-006 rev/day^2
Epoch rev:           17054
Checksum:              310

Satellite: JAWSAT
Catalog number: 26061
Epoch time:      103062.24394613
Element set:     778 
Inclination:      100.2031 deg
RA of node:       121.6621 deg
Eccentricity:    0.0034820
Arg of perigee:   243.1838 deg
Mean anomaly:     116.5781 deg
Mean motion:   14.37836755 rev/day
Decay rate:    3.3599E-006 rev/day^2
Epoch rev:           16235
Checksum:              290

Satellite: OPAL
Catalog number: 26063
Epoch time:      103062.17110758
Element set:     732 
Inclination:      100.2065 deg
RA of node:       119.0329 deg
Eccentricity:    0.0036699
Arg of perigee:   251.5004 deg
Mean anomaly:     108.2182 deg
Mean motion:   14.35485391 rev/day
Decay rate:    6.8999E-007 rev/day^2
Epoch rev:           16219
Checksum:              397

Satellite: ASUSAT
Catalog number: 26065
Epoch time:      103062.19743317
Element set:     746 
Inclination:      100.2098 deg
RA of node:       119.2200 deg
Eccentricity:    0.0036957
Arg of perigee:   252.0938 deg
Mean anomaly:     107.6210 deg
Mean motion:   14.35513322 rev/day
Decay rate:    7.9000E-007 rev/day^2
Epoch rev:           16219
Checksum:              273

Satellite: GOES 11
Catalog number: 26352
Epoch time:      103061.50684602
Element set:     47 
Inclination:        0.1702 deg
RA of node:       102.1927 deg
Eccentricity:    0.0003260
Arg of perigee:   207.3332 deg
Mean anomaly:     279.1438 deg
Mean motion:    1.00266384 rev/day
Decay rate:   -4.8999E-007 rev/day^2
Epoch rev:            1035
Checksum:              264

Satellite: EUTELSAT W4
Catalog number: 26369
Epoch time:      103056.75615172
Element set:     355 
Inclination:        0.0374 deg
RA of node:        10.0316 deg
Eccentricity:    0.0003506
Arg of perigee:   335.6383 deg
Mean anomaly:     117.8134 deg
Mean motion:    1.00274569 rev/day
Decay rate:    1.4099E-006 rev/day^2
Epoch rev:            1012
Checksum:              262

Satellite: FENGYUN 2B
Catalog number: 26382
Epoch time:      103062.22690641
Element set:     804 
Inclination:        0.5390 deg
RA of node:       287.9954 deg
Eccentricity:    0.0002204
Arg of perigee:   190.6933 deg
Mean anomaly:     228.0471 deg
Mean motion:    1.00270798 rev/day
Decay rate:   -3.4400E-006 rev/day^2
Epoch rev:             983
Checksum:              281

Satellite: EUTELSAT W1
Catalog number: 26487
Epoch time:      103062.03640626
Element set:     362 
Inclination:        0.0266 deg
RA of node:       289.8625 deg
Eccentricity:    0.0004066
Arg of perigee:    60.9887 deg
Mean anomaly:     192.5708 deg
Mean motion:    1.00273438 rev/day
Decay rate:    5.2000E-007 rev/day^2
Epoch rev:             914
Checksum:              283

Satellite: ASTRA 2B
Catalog number: 26494
Epoch time:      103057.00000000
Element set:     256 
Inclination:        0.0178 deg
RA of node:       354.5658 deg
Eccentricity:    0.0005000
Arg of perigee:   302.8402 deg
Mean anomaly:     246.1704 deg
Mean motion:    1.00276704 rev/day
Decay rate:    1.3400E-006 rev/day^2
Epoch rev:             899
Checksum:              231

Satellite: NOAA 16
Catalog number: 26536
Epoch time:      103061.48728799
Element set:     229 
Inclination:       98.9034 deg
RA of node:         9.6816 deg
Eccentricity:    0.0009825
Arg of perigee:   274.2853 deg
Mean anomaly:      85.7200 deg
Mean motion:   14.11911140 rev/day
Decay rate:    3.6100E-006 rev/day^2
Epoch rev:           12583
Checksum:              420

Satellite: SAUDISAT 1A
Catalog number: 26545
Epoch time:      103062.25777681
Element set:     419 
Inclination:       64.5605 deg
RA of node:       352.9224 deg
Eccentricity:    0.0051308
Arg of perigee:   236.7330 deg
Mean anomaly:     122.8842 deg
Mean motion:   14.79010653 rev/day
Decay rate:    1.1250E-005 rev/day^2
Epoch rev:           13109
Checksum:              284

Satellite: UNISAT
Catalog number: 26547
Epoch time:      103061.89961433
Element set:     438 
Inclination:       64.5590 deg
RA of node:       356.2083 deg
Eccentricity:    0.0058388
Arg of perigee:   238.7805 deg
Mean anomaly:     120.7577 deg
Mean motion:   14.79792935 rev/day
Decay rate:    1.7090E-005 rev/day^2
Epoch rev:           13101
Checksum:              334

Satellite: TIUNGSAT 1
Catalog number: 26548
Epoch time:      103061.78806828
Element set:     422 
Inclination:       64.5592 deg
RA of node:       347.1194 deg
Eccentricity:    0.0044627
Arg of perigee:   236.0573 deg
Mean anomaly:     123.6315 deg
Mean motion:   14.81307163 rev/day
Decay rate:    1.5040E-005 rev/day^2
Epoch rev:           13117
Checksum:              291

Satellite: SAUDISAT 1B
Catalog number: 26549
Epoch time:      103062.30298514
Element set:     706 
Inclination:       64.5526 deg
RA of node:       356.9627 deg
Eccentricity:    0.0055697
Arg of perigee:   236.7299 deg
Mean anomaly:     122.8464 deg
Mean motion:   14.77944848 rev/day
Decay rate:    7.7799E-006 rev/day^2
Epoch rev:           13102
Checksum:              460

Satellite: AMSAT OSCAR 40
Catalog number: 26609
Epoch time:      103062.14261750
Element set:     313 
Inclination:        8.2009 deg
RA of node:        61.8922 deg
Eccentricity:    0.7947545
Arg of perigee:   149.3793 deg
Mean anomaly:     302.8222 deg
Mean motion:    1.25596061 rev/day
Decay rate:   -3.1399E-006 rev/day^2
Epoch rev:            1073
Checksum:              296

Satellite: GOES 12
Catalog number: 26871
Epoch time:      103059.57649229
Element set:     843 
Inclination:        0.3031 deg
RA of node:       276.6038 deg
Eccentricity:    0.0002337
Arg of perigee:    24.0593 deg
Mean anomaly:     333.5659 deg
Mean motion:    1.00359880 rev/day
Decay rate:   -2.0400E-006 rev/day^2
Epoch rev:             593
Checksum:              287

Satellite: PCSAT
Catalog number: 26931
Epoch time:      103062.54224013
Element set:     415 
Inclination:       67.0469 deg
RA of node:       222.2134 deg
Eccentricity:    0.0005131
Arg of perigee:   268.9508 deg
Mean anomaly:      91.1001 deg
Mean motion:   14.29120477 rev/day
Decay rate:    8.6000E-007 rev/day^2
Epoch rev:            7420
Checksum:              252

Satellite: SAPPHIRE
Catalog number: 26932
Epoch time:      103061.53902036
Element set:     409 
Inclination:       67.0534 deg
RA of node:       224.4980 deg
Eccentricity:    0.0004523
Arg of perigee:   244.8118 deg
Mean anomaly:     115.2513 deg
Mean motion:   14.29297528 rev/day
Decay rate:    3.0999E-007 rev/day^2
Epoch rev:            7408
Checksum:              302

